Location: Ammerl�gen
(47.2167°N, 9.6000°E)
Time: 07:29:19
(UTC+00:00)

Iridium 4 Rocket - Pass Details

Date: 06 August 2021
Orbit: 584 x 904 km, 86.9° (Epoch: 18 September)

Event Time Altitude Azimuth Distance (km) Brightness Sun altitude
Rises 00:43:58 0° 356° (N) 3,482 8.0 -23.8°
Reaches altitude 10° 00:46:22 10° 356° (N) 2,564 7.1 -23.7°
Maximum altitude 00:52:15 86° 270° (W) 913 3.7 -23.3°
Enters shadow 00:53:55 50° 184° (S) 1,138 3.9 -23.2°
